Volver al catálogo

STARLINK-5800

ActivoComunicacionesVLEO
NORAD 56041·PAYLOAD·🇺🇸 United States

Lanzado Mar 24, 2023 desde Cape Canaveral Space Force Station

Loading…

Próximos Pases (próximas 24 horas)

TLE

ActualizadoSource: CelesTrak SupGP

Época: Sep 14, 2026, 20:48 UTC

1 56041C 23042BH  26257.86715278  .00060425  00000+0  21888-2 0  2575
2 56041  43.0026  45.6127 0001436 272.9866 180.0037 15.27545801    10

Sigue STARLINK-5800 en tiempo real con AllMySat

Download on the App Store